Creek Data

    Home     View Charts     View Raw Data     Messages

ID Distance Battery Voltage Battery Current Internal Temp Internal Humidity External Temp Solar Input rssi snr Time Stamp Record
36943 0.0 3.88 0 52 36 54 5.1 -77 8 04/05/2025 08:30 AM 18807
36942 0.0 3.88 0 50 37 52 5.1 -76 9 04/05/2025 08:16 AM 18806
36941 0.0 3.88 0 47 37 50 5.1 -77 9 04/05/2025 08:00 AM 18805
36940 0.0 3.89 0 44 38 50 5.1 -77 9 04/05/2025 07:45 AM 18804
36939 0.0 3.96 18 42 39 48 4.5 -77 7 04/05/2025 07:30 AM 18803
36938 0.0 3.93 0 40 40 46 4.5 -78 9 04/05/2025 07:15 AM 18802
36937 0.0 3.84 0 39 40 42 4.5 -77 8 04/05/2025 07:00 AM 18801
36936 0.0 3.81 -10 39 40 41 4.5 -78 7 04/05/2025 06:45 AM 18800
36935 15.2 3.83 -5 39 40 40 1.6 -77 8 04/05/2025 06:30 AM 18799
36934 15.1 3.89 -5 40 40 42 0 -77 9 04/05/2025 06:15 AM 18798
36933 15.0 3.83 -5 41 40 42 0.1 -77 8 04/05/2025 06:00 AM 18797
36932 0.0 3.83 -5 41 40 42 0 -76 8 04/05/2025 05:45 AM 18796
36931 15.1 3.89 -5 42 40 44 0 -77 8 04/05/2025 05:30 AM 18795
36930 15.1 3.83 -5 41 40 44 0 -76 8 04/05/2025 05:15 AM 18794
36929 15.1 3.83 -5 41 40 44 0 -77 8 04/05/2025 05:00 AM 18793
36928 15.1 3.89 -5 41 40 43 0 -77 8 04/05/2025 04:45 AM 18792
36927 15.2 3.83 -5 42 40 42 0 -77 8 04/05/2025 04:30 AM 18791
36926 15.1 3.83 -5 42 40 44 0 -77 8 04/05/2025 04:15 AM 18790
36925 15.1 3.89 -5 42 40 45 0 -77 8 04/05/2025 04:00 AM 18789
36924 0.0 3.83 -5 42 40 44 0 -77 8 04/05/2025 03:45 AM 18788
36923 15.1 3.83 -5 42 40 44 0 -77 9 04/05/2025 03:30 AM 18787
36922 15.1 3.89 -5 41 41 42 0 -77 8 04/05/2025 03:15 AM 18786
36921 0.0 3.83 -5 42 41 45 0 -78 7 04/05/2025 03:00 AM 18785
36920 15.0 3.84 -5 43 41 45 0 -78 8 04/05/2025 02:45 AM 18784
36919 15.2 3.83 -5 43 40 46 0 -78 8 04/05/2025 02:30 AM 18783